Content
SEND FEEDBACK

Daily
Averages
Monthly
Summary
India

HYDERABAD, INDIA


Home > Asia > India
Elevation: 1788 feet     Latitude: 17 27N     Longitude: 078 28E

WEATHER
 
SELECT A DAY
Number of Records: 127,174;   Date Range: 12/24/96 - 9/30/14
 
SHARE

PRINT THIS DATA

[ ← Previous Day ]
WEATHER ALMANAC - OCTOBER 15, 2013
[ Next Day → ]
[ °C ]   °F
Weather ElementAverageHighLow
Temperature83.1 °F89.6 °F (11:10 am)73.4 °F (7:10 am)
Dewpoint68.2 °F71 °F (5:30 am)64.4 °F (5:10 pm)
Humidity59.4 %83 % (7:10 am)44 % (2:30 pm)
Barometer29.88 in29.98 in (9:10 am)29.71 in (2:30 pm)
Wind Speed5.4 mph9.2 mph (10:10 am)
Weather ElementAverage
Visibility3.2 mi
Wind DirectionESE (111.3 °)

Weather ElementTotal
Precipitation---
Cooling Degree Days16.5 (Base 65)
Growing Degree Days31.5 (Base 50)
Averaged from 21 records on October 15, 2013
WEATHER CONDITIONS BREAKOUT
WIND DIRECTION BREAKOUT
WEATHER BY HOUR - OCTOBER 15, 2013
[ °C ]   °F
Local TimeTemperatureDewpointHumidityBarometerVisibilityWind DirectionWind SpeedGust SpeedPrecipitationEventsConditions
5:30 AM76.0 °F71.0 °F79 %29.79 in2.0 miCalmHaze
6:10 AM75.2 °F68.0 °F78 %29.92 in1.9 miSouth (180°)5.8 mphHaze
7:10 AM73.4 °F68.0 °F83 %29.92 in1.9 miSouth (180°)5.8 mphHaze
8:10 AM78.8 °F68.0 °F69 %29.95 in2.5 miEast (90°)5.8 mphHaze
8:30 AM81.0 °F71.0 °F65 %29.86 in6.0 miCalmClear
9:10 AM84.2 °F69.8 °F62 %29.98 in2.5 miEast (90°)6.9 mphHaze
10:10 AM87.8 °F69.8 °F55 %29.98 in2.5 miEast (90°)9.2 mphHaze
11:10 AM89.6 °F68.0 °F49 %29.95 in3.1 miEast (90°)9.2 mphHaze
11:30 AM85.0 °F70.0 °F52 %29.83 in6.0 miNNW (340°)3.5 mphMostly Cloudy
12:10 PM89.6 °F68.0 °F49 %29.92 in3.1 miEast (90°)9.2 mphHaze
1:10 PM89.6 °F68.0 °F49 %29.89 in3.7 miEast (90°)6.9 mphScattered Clouds
2:30 PM89.0 °F70.0 °F44 %29.71 in6.0 mi°2.3 mphMostly Cloudy
3:10 PM87.8 °F66.2 °F49 %29.86 in3.7 miNE (50°)9.2 mphPartly Cloudy
4:10 PM87.8 °F66.2 °F49 %29.86 in3.7 miEast (80°)6.9 mphScattered Clouds
5:10 PM86.0 °F64.4 °F48 %29.86 in3.7 miENE (70°)9.2 mphScattered Clouds
5:30 PM86.0 °F68.0 °F46 %29.72 in2.0 mi°2.3 mphHaze
7:10 PM80.6 °F64.4 °F58 %29.92 in3.1 miNE (50°)6.9 mphHaze
8:10 PM80.6 °F66.2 °F61 %29.92 in3.1 miEast (90°)5.8 mphHaze
8:30 PM81.0 °F70.0 °F62 %29.81 in2.0 mi°2.3 mphHaze
9:10 PM78.8 °F66.2 °F65 %29.95 in3.1 miEast (90°)6.9 mphHaze
11:30 PM77.0 °F71.0 °F76 %29.82 in2.0 miCalmHaze
Hourly data recorded from VOHY, located miles away from Hyderabad, India







STORIES FROM OUR PARTNERS